{"data":{"norad_id":64885,"epoch":"2026-09-21T22:06:27.907776Z","epoch_age_seconds":48483,"freshness":"FRESH","line1":"1 64885U 25155K   26264.92115634  .00030632  00000+0  63636-3 0  9990","line2":"2 64885  97.4605 237.7486 0007548 138.9643 221.2175 15.45593490 95828","mean_motion":15.4559349,"eccentricity":0.0007548,"inclination_deg":97.4605,"raan_deg":237.7486,"arg_perigee_deg":138.9643,"mean_anomaly_deg":221.2175,"bstar":0.00063636,"rev_number":9582,"period_min":93.168094283316,"perigee_km":424.49627114316,"apogee_km":434.77328341814,"semimajor_km":6807.7717772806,"source":"CELESTRAK","updated_at":"2026-09-22T09:00:30.015902Z"}}